DW6004 Weather Reports


time (UTC)temp
C
wind
direction
speed
KPH
gust
KPH
rain 1hr
cm
rain 24hr
cm
rain mn
cm
humidity
%
barometer
mb
20260504202503 23 221 12.9 33.8 0.00 0.00 0.00 34 1007.7
20260504202003 23 222 12.9 33.8 0.00 0.00 0.00 31 1007.8
20260504201503 23 206 9.7 25.7 0.00 0.00 0.00 34 1007.7
20260504201004 23 209 8.0 25.7 0.00 0.00 0.00 34 1007.8
20260504200504 23 223 9.7 27.4 0.00 0.00 0.00 33 1007.8
20260504200003 23 223 12.9 29.0 0.00 0.00 0.00 33 1007.9
20260504195503 23 216 11.3 29.0 0.00 0.00 0.00 33 1008.2
20260504195003 23 206 9.7 35.4 0.00 0.00 0.00 34 1008.1
20260504194503 23 205 9.7 35.4 0.00 0.00 0.00 34 1008.3
20260504194003 23 206 9.7 22.5 0.00 0.00 0.00 34 1008.1
20260504193504 23 200 9.7 30.6 0.00 0.00 0.00 32 1008.3
20260504193004 23 191 9.7 33.8 0.00 0.00 0.00 34 1008.0
20260504192504 23 188 12.9 33.8 0.00 0.00 0.00 36 1008.4
20260504192004 23 204 14.5 30.6 0.00 0.00 0.00 34 1008.4
20260504191503 23 224 14.5 29.0 0.00 0.00 0.00 35 1008.5
20260504191004 23 223 12.9 29.0 0.00 0.00 0.00 33 1008.4
20260504190504 23 213 11.3 25.7 0.00 0.00 0.00 32 1008.5
20260504190024 22 214 14.5 27.4 0.00 0.00 0.00 35 1008.9
20260504185503 22 214 12.9 27.4 0.00 0.00 0.00 33 1008.8
20260504185003 22 223 12.9 30.6 0.00 0.00 0.00 36 1008.9
20260504184503 22 224 12.9 30.6 0.00 0.00 0.00 33 1008.9
20260504184003 22 220 12.9 33.8 0.00 0.00 0.00 34 1008.9
20260504183504 22 211 11.3 33.8 0.00 0.00 0.00 35 1009.1
20260504183003 22 202 9.7 24.1 0.00 0.00 0.00 35 1008.9
20260504182503 22 214 9.7 22.5 0.00 0.00 0.00 36 1009.0
20260504182025 22 210 9.7 22.5 0.00 0.00 0.00 36 1009.0
20260504181503 22 206 11.3 29.0 0.00 0.00 0.00 38 1009.1
20260504181004 22 211 12.9 29.0 0.00 0.00 0.00 36 1009.1
20260504180503 22 203 12.9 33.8 0.00 0.00 0.00 34 1009.5
20260504180003 22 194 14.5 35.4 0.00 0.00 0.00 36 1009.3
20260504175504 22 206 12.9 35.4 0.00 0.00 0.00 38 1009.5
20260504175004 21 216 11.3 33.8 0.00 0.00 0.00 36 1009.2
20260504174524 21 209 12.9 33.8 0.00 0.00 0.00 36 1009.4
20260504174025 21 213 16.1 35.4 0.00 0.00 0.00 36 1009.6
20260504173503 21 222 16.1 35.4 0.00 0.00 0.00 35 1009.7
20260504173004 21 234 14.5 30.6 0.00 0.00 0.00 36 1009.6
20260504172504 21 244 14.5 27.4 0.00 0.00 0.00 35 1009.7
20260504172003 21 238 14.5 27.4 0.00 0.00 0.00 32 1009.9
20260504171525 21 221 16.1 40.2 0.00 0.00 0.00 34 1009.7
20260504171004 21 221 14.5 40.2 0.00 0.00 0.00 34 1010.1
20260504170503 21 242 11.3 27.4 0.00 0.00 0.00 37 1010.0
20260504151024 19 228 11.3 27.4 0.00 0.00 0.00 37 1011.4
20260504150503 19 209 12.9 33.8 0.00 0.00 0.00 38 1011.4
20260504141003 17 222 16.1 35.4 0.00 0.00 0.00 38 1012.0
20260504140503 17 227 16.1 33.8 0.00 0.00 0.00 40 1011.8
20260504130525 15 241 9.7 22.5 0.00 0.00 0.00 43 1012.3
20260504110503 7 154 1.6 6.4 0.00 0.00 0.00 64 1012.6
20260504100503 6 161 1.6 4.8 0.00 0.00 0.00 61 1012.4
20260504081524 10 245 4.8 20.9 0.00 0.00 0.00 50 1012.1
20260504081024 10 243 6.4 20.9 0.00 0.00 0.00 50 1012.1
20260504080503 10 240 6.4 12.9 0.00 0.00 0.00 51 1012.1
20260504050503 8 236 6.4 20.9 0.00 0.00 0.00 54 1011.6
20260504050004 8 238 6.4 12.9 0.00 0.00 0.00 55 1011.7
20260504045503 7 234 4.8 11.3 0.00 0.00 0.00 57 1011.5
20260504045003 7 232 4.8 9.7 0.00 0.00 0.00 58 1011.5
20260504044504 7 231 3.2 6.4 0.00 0.00 0.00 59 1011.4
20260504044003 7 229 3.2 6.4 0.00 0.00 0.00 59 1011.5
20260504043504 6 226 3.2 6.4 0.00 0.00 0.00 60 1011.4
20260504043004 6 225 3.2 6.4 0.00 0.00 0.00 61 1011.3
20260504042504 6 230 3.2 6.4 0.00 0.00 0.00 61 1011.4
20260504042003 6 235 3.2 4.8 0.00 0.00 0.00 61 1011.2
20260504041503 6 235 3.2 6.4 0.00 0.00 0.00 62 1011.1
20260504041003 6 235 1.6 6.4 0.00 0.00 0.00 62 1011.3
20260504040503 5 233 1.6 4.8 0.00 0.00 0.00 61 1011.0
20260504040003 5 234 1.6 4.8 0.00 0.00 0.00 61 1011.4
20260504035503 5 235 1.6 3.2 0.00 0.00 0.00 61 1011.1
20260504035003 5 235 1.6 3.2 0.00 0.00 0.00 61 1011.2
20260504034504 5 235 0.0 3.2 0.00 0.00 0.00 60 1011.1
20260504034024 6 235 0.0 3.2 0.00 0.00 0.00 60 1011.1
20260504033503 6 235 0.0 3.2 0.00 0.00 0.00 59 1011.0
20260504033025 6 236 0.0 1.6 0.00 0.00 0.00 59 1011.1
20260504032504 6 236 0.0 1.6 0.00 0.00 0.00 60 1011.2
20260504032003 6 236 0.0 1.6 0.00 0.00 0.00 59 1011.2
20260504031503 6 236 0.0 3.2 0.00 0.00 0.00 59 1011.1
20260504031004 6 236 0.0 3.2 0.00 0.00 0.00 59 1011.1
20260504030524 6 0 0.0 0.0 0.00 0.00 0.00 58 1011.1
20260504030003 6 0 0.0 0.0 0.00 0.00 0.00 58 1011.4
20260504025504 6 0 0.0 0.0 0.00 0.00 0.00 57 1011.2
20260504025024 6 0 0.0 0.0 0.00 0.00 0.00 56 1011.2
20260504024503 6 236 0.0 1.6 0.00 0.00 0.00 56 1010.9
20260504024003 6 238 0.0 1.6 0.00 0.00 0.00 55 1011.0
20260504023503 7 239 0.0 1.6 0.00 0.00 0.00 53 1011.2
20260504023003 7 0 0.0 0.0 0.00 0.00 0.00 53 1011.2
20260504022524 7 0 0.0 0.0 0.00 0.00 0.00 52 1011.2
20260504022024 7 0 0.0 0.0 0.00 0.00 0.00 51 1011.3
20260504021503 7 0 0.0 0.0 0.00 0.00 0.00 50 1011.2
20260504021003 7 0 0.0 0.0 0.00 0.00 0.00 50 1011.1
20260504020524 8 0 0.0 0.0 0.00 0.00 0.00 49 1011.1
20260504020004 8 0 0.0 0.0 0.00 0.00 0.00 48 1011.2
20260504015504 8 0 0.0 0.0 0.00 0.00 0.00 47 1011.1
20260504015004 8 0 0.0 0.0 0.00 0.00 0.00 46 1011.0
20260504014504 9 0 0.0 0.0 0.00 0.00 0.00 46 1010.9
20260504014003 9 0 0.0 0.0 0.00 0.00 0.00 45 1011.1
20260504013503 10 0 0.0 0.0 0.00 0.00 0.00 44 1011.0
20260504013004 10 0 0.0 0.0 0.00 0.00 0.00 43 1010.8
20260504012503 10 0 0.0 0.0 0.00 0.00 0.00 42 1010.9
20260504012024 11 0 0.0 0.0 0.00 0.00 0.00 42 1010.9
20260504011504 11 239 0.0 1.6 0.00 0.00 0.00 41 1010.8
20260504011003 11 239 0.0 1.6 0.00 0.00 0.00 40 1010.8
20260504010503 11 239 0.0 1.6 0.00 0.00 0.00 39 1010.5
20260504010004 12 238 0.0 1.6 0.00 0.00 0.00 39 1010.7
20260504005504 12 238 0.0 3.2 0.00 0.00 0.00 38 1010.6
20260504005003 12 241 1.6 3.2 0.00 0.00 0.00 38 1010.5
20260504004504 12 250 1.6 6.4 0.00 0.00 0.00 37 1010.4
20260504004024 13 258 1.6 6.4 0.00 0.00 0.00 36 1010.5
20260504003503 13 260 1.6 11.3 0.00 0.00 0.00 36 1010.3
20260504003004 13 257 3.2 11.3 0.00 0.00 0.00 35 1010.3
20260504002525 13 257 1.6 6.4 0.00 0.00 0.00 35 1010.3
20260504002003 13 286 1.6 4.8 0.00 0.00 0.00 34 1010.1
20260504001503 13 298 1.6 4.8 0.00 0.00 0.00 34 1009.9
20260504001003 14 275 3.2 11.3 0.00 0.00 0.00 34 1009.9
20260504000503 14 262 3.2 11.3 0.00 0.00 0.00 33 1010.0
20260504000025 14 260 3.2 12.9 0.00 0.00 0.00 33 1009.8
20260503235504 14 265 4.8 14.5 0.00 0.00 0.00 32 1009.8
20260503235003 15 268 6.4 17.7 0.00 0.00 0.00 32 1009.7
20260503234503 15 270 6.4 17.7 0.00 0.00 0.00 31 1009.6
20260503234004 15 272 4.8 11.3 0.00 0.00 0.00 31 1009.9
20260503233503 15 263 4.8 14.5 0.00 0.00 0.00 32 1009.8
20260503233003 15 261 6.4 16.1 0.00 0.00 0.00 30 1009.3
20260503232525 15 266 6.4 16.1 0.00 0.00 0.00 30 1009.3
20260503232003 15 283 4.8 12.9 0.00 0.00 0.00 31 1009.2
20260503231504 15 281 4.8 14.5 0.00 0.00 0.00 29 1009.1
20260503231004 15 277 4.8 14.5 0.00 0.00 0.00 30 1009.1
20260503230503 15 296 6.4 22.5 0.00 0.00 0.00 30 1009.3
20260503230004 15 295 9.7 24.1 0.00 0.00 0.00 29 1009.3
20260503225504 15 277 9.7 24.1 0.00 0.00 0.00 29 1009.4
20260503225004 16 275 9.7 25.7 0.00 0.00 0.00 28 1009.1
20260503224503 16 288 11.3 25.7 0.00 0.00 0.00 28 1009.3
20260503224004 16 293 9.7 25.7 0.00 0.00 0.00 28 1008.9
20260503223503 16 290 8.0 25.7 0.00 0.00 0.00 27 1009.1
20260503223003 16 273 9.7 33.8 0.00 0.00 0.00 27 1009.2
20260503222524 16 262 11.3 33.8 0.00 0.00 0.00 27 1009.0
20260503222004 16 272 11.3 25.7 0.00 0.00 0.00 27 1009.1
20260503221503 16 281 11.3 29.0 0.00 0.00 0.00 27 1009.4
20260503221004 16 281 9.7 29.0 0.00 0.00 0.00 28 1009.2
20260503220503 16 279 9.7 30.6 0.00 0.00 0.00 27 1009.1
20260503220003 16 269 12.9 30.6 0.00 0.00 0.00 28 1009.0
20260503215503 16 265 12.9 38.6 0.00 0.00 0.00 27 1009.1
20260503215024 16 265 12.9 38.6 0.00 0.00 0.00 27 1009.3
20260503214504 16 266 12.9 30.6 0.00 0.00 0.00 27 1009.2
20260503214004 16 278 9.7 27.4 0.00 0.00 0.00 28 1009.1
20260503213503 16 282 8.0 22.5 0.00 0.00 0.00 27 1009.2
20260503213004 16 277 9.7 25.7 0.00 0.00 0.00 27 1009.0
20260503212504 16 294 11.3 27.4 0.00 0.00 0.00 27 1009.3
20260503212004 16 281 9.7 27.4 0.00 0.00 0.00 28 1009.1
20260503211503 16 261 11.3 30.6 0.00 0.00 0.00 28 1009.0
20260503211024 16 259 14.5 35.4 0.00 0.00 0.00 29 1009.2
20260503210504 16 258 14.5 37.0 0.00 0.00 0.00 27 1009.0
20260503210003 16 254 14.5 37.0 0.00 0.00 0.00 27 1008.9
20260503205503 16 275 14.5 41.8 0.00 0.00 0.00 28 1009.0
20260503205003 15 281 12.9 41.8 0.00 0.00 0.00 28 1008.8
20260503204504 15 269 12.9 29.0 0.00 0.00 0.00 29 1009.2
20260503204025 15 267 12.9 29.0 0.00 0.00 0.00 28 1009.3
20260503203504 15 259 14.5 35.4 0.00 0.00 0.00 29 1009.3
20260503203003 15 261 16.1 41.8 0.00 0.00 0.00 30 1009.0